Weather History for Beverly, MA

Change the Weather History Date:

Tuesday, October 2, 2012

  Actual Average Record
Temperature  
Mean Temperature 63 °F -  
Max Temperature 71 °F 64 °F 84 °F (2002)
Min Temperature 55 °F 43 °F 37 °F (2009)
Degree Days  
Heating Degree Days 2    
Growing Degree Days 13 (Base 50)    
Moisture  
Dew Point 55 °F    
Average Humidity 82    
Maximum Humidity 94    
Minimum Humidity 53    
Precipitation  
Precipitation 0.06 in - - ()
Sea Level Pressure  
Sea Level Pressure 30.01 in    
Wind  
Wind Speed 3 mph (WSW)    
Max Wind Speed 7 mph    
Max Gust Speed -    
Visibility 9 miles    
Events Rain    
Averages and records for this station are not official NWS values.
T = Trace of Precipitation, MM = Missing Value Source: NWS Daily Summary

Daily Weather History Graph

Daily Weather History Graph

Search for Another Location

Airport:

Trip Planner

Search our weather history database for the weather conditions in past years. The results will help you decide how hot, cold, wet, or windy it might be!

Date:

Astronomy

Oct. 02, 2012 Rise Set
Actual Time 6:42 AM EDT 6:22 PM EDT
Civil Twilight 6:14 AM EDT 6:50 PM EDT
Nautical Twilight 5:41 AM EDT 7:23 PM EDT
Astronomical Twilight 5:08 AM EDT 7:56 PM EDT
Moon 7:28 PM EDT (10/2) 9:10 AM EDT (10/2)
Length of Visible Light 12h 36m
Length of Day
11h 40m
Waning Gibbous, 94% of the Moon is Illuminated
Oct 2
Waning Gibbous
Oct 8
Last Quarter
Oct 15
New
Oct 21
First Quarter
Oct 29
Full

Hourly Weather History & Observations

Time (EDT) Temp. Dew Point Humidity Pressure Visibility Wind Dir Wind Speed Gust Speed Precip Events Conditions
12:53 AM 57.0 °F 50.0 °F 77% 29.91 in 10.0 mi WSW 4.6 mph - N/A   Clear
1:53 AM 57.0 °F 51.1 °F 81% 29.92 in 10.0 mi West 3.5 mph - N/A   Clear
2:53 AM 55.4 °F 51.8 °F 88% 29.93 in 10.0 mi Calm Calm - N/A   Clear
3:53 AM 55.0 °F 50.0 °F 83% 29.94 in 10.0 mi WSW 3.5 mph - N/A   Clear
4:53 AM 55.0 °F 51.1 °F 86% 29.94 in 10.0 mi WSW 4.6 mph - N/A   Clear
5:53 AM 57.0 °F 51.1 °F 81% 29.96 in 10.0 mi WSW 4.6 mph - N/A   Clear
6:53 AM 55.0 °F 52.0 °F 89% 29.97 in 10.0 mi Calm Calm - N/A   Scattered Clouds
7:53 AM 57.2 °F 53.6 °F 88% 30.00 in 10.0 mi SW 4.6 mph - N/A   Overcast
8:53 AM 61.0 °F 53.1 °F 75% 30.00 in 10.0 mi West 4.6 mph - N/A   Overcast
9:53 AM 64.9 °F 54.0 °F 68% 30.01 in 10.0 mi WNW 5.8 mph - N/A   Scattered Clouds
10:53 AM 68.0 °F 54.0 °F 61% 30.01 in 10.0 mi SW 6.9 mph - N/A   Clear
11:53 AM 70.0 °F 54.0 °F 57% 30.01 in 10.0 mi West 3.5 mph - N/A   Clear
12:53 PM 71.1 °F 53.1 °F 53% 30.00 in 10.0 mi WSW 6.9 mph - N/A   Clear
1:53 PM 69.1 °F 54.0 °F 58% 30.00 in 10.0 mi West 4.6 mph - 0.00 in   Scattered Clouds
2:53 PM 66.9 °F 57.0 °F 70% 30.00 in 9.0 mi West 3.5 mph - 0.00 in Rain Light Rain
3:53 PM 64.9 °F 57.9 °F 78% 30.01 in 10.0 mi West 4.6 mph - 0.01 in Rain Light Rain
4:53 PM 63.0 °F 57.9 °F 84% 30.02 in 10.0 mi West 4.6 mph - 0.02 in Rain Light Rain
5:20 PM 62.6 °F 57.2 °F 82% 30.02 in 10.0 mi SSW 4.6 mph - 0.01 in Rain Light Rain
5:53 PM 63.0 °F 59.0 °F 87% 30.02 in 10.0 mi SW 3.5 mph - 0.01 in Rain Light Rain
6:53 PM 62.1 °F 57.9 °F 86% 30.01 in 10.0 mi Calm Calm - 0.01 in Rain Light Rain
7:53 PM 60.8 °F 57.2 °F 88% 30.03 in 10.0 mi SSW 3.5 mph - N/A Rain Light Rain
8:53 PM 60.8 °F 57.2 °F 88% 30.05 in 10.0 mi Calm Calm - N/A   Overcast
9:04 PM 60.8 °F 57.2 °F 88% 30.05 in 10.0 mi Calm Calm - N/A   Overcast
9:14 PM 60.8 °F 57.2 °F 88% 30.05 in 9.0 mi Calm Calm - N/A   Overcast
9:48 PM 60.8 °F 59.0 °F 94% 30.05 in 6.0 mi Calm Calm - N/A   Overcast
9:53 PM 61.0 °F 59.0 °F 93% 30.03 in 6.0 mi Calm Calm - N/A   Mostly Cloudy
10:17 PM 60.8 °F 57.2 °F 88% 30.05 in 1.8 mi Calm Calm - N/A   Mostly Cloudy
10:53 PM 61.0 °F 59.0 °F 93% 30.04 in 6.0 mi Calm Calm - N/A   Overcast
11:09 PM 60.8 °F 59.0 °F 94% 30.06 in 2.0 mi Calm Calm - 0.01 in Rain Light Rain
11:24 PM 60.8 °F 59.0 °F 94% 30.05 in 5.0 mi Calm Calm - 0.01 in   Overcast
11:53 PM 61.0 °F 59.0 °F 93% 30.03 in 4.0 mi Calm Calm - 0.01 in   Overcast